sat.trackr.live / text

‹ back to catalog

HAWK-7C

NORAD 56200 · 2023-054Y

PAYLOAD ACTIVE UNKNOWN

§ Identity

Operator
Country
US
Launch date
2023-04-15
Launch site
AFWTR
Launch vehicle
Mass (kg)
RCS (m²)

Purposes: tech_demo

External: N2YO · Heavens-Above · Gunter

§ Orbital elements

Epoch: 2026-05-25T02:42:03.746304Z

Period
94.30 min
Inclination
97.2737°
Eccentricity
0.0004119
Mean motion
15.27077189 rev/d
Perigee alt
481.7 km
Apogee alt
487.4 km
Semi-major
6,862.7 km
B*
1.8905e-4
RAAN
32.0686°
Arg perigee
104.4565°
Mean anomaly
255.7132°
Rev number
17,350

§ Raw data

HAWK-7C1 56200U 23054Y   26145.11254336  .00004950  00000+0  18905-3 0  99932 56200  97.2737  32.0686 0004119 104.4565 255.7132 15.27077189173503

JSON: /api/v1/satellites/56200 · /tle

For live sub-satellite position, see the globe view (requires WebGL).

§ Visibility from observer

Set your observer location to see the next 7 days of passes ≥ 10°. The values pass through the URL so the page stays shareable.

No JS? Fill the form by hand. The geolocation button needs JavaScript.